Retour au catalogue

COSMOS 1375 DEB

ActifLEO
NORAD 16382·DEBRIS·🇷🇺 Russia

Lancé Jun 6, 1982 depuis Plesetsk Cosmodrome

Loading…

Prochains Passages (prochaines 24 heures)

TLE

FraisSource: Space-Track

Époque: Sep 14, 2026, 10:16 UTC

1 16382U 82055W   26257.42805593  .00003748  00000-0  10477-2 0  9991
2 16382  65.7374  46.4889 0029206 216.6215 175.9782 14.47084327103233

Suivez COSMOS 1375 DEB en temps réel avec AllMySat

Download on the App Store